Wind_Speed
75 93 93 88 86 83 79 77 74 61 54 59 59 47 58 52 49 46 40 38 36 37 37 31 30 28 24 25 26 27 28 26 24 24 24 23 26 26 22 20 18 15 10 8 5
66 79 98 90 88 86 82 80 75 61 64 56 58 56 59 53 55 48 46 42 44 38 37 35 31 29 20 31 29 29 28 27 26 26 26 27 27 28 24 22 19 14 11 10 7
66 71 93 94 88 88 84 82 79 75 64 70 69 61 60 58 57 50 46 45 41 38 40 38 35 34 29 24 31 31 29 30 27 27 28 30 29 28 27 21 19 15 14 12 10
62 66 75 97 91 87 86 84 81 78 71 67 65 68 50 59 57 53 51 50 45 44 44 39 37 35 36 33 30 35 32 33 30 28 28 30 32 30 27 26 20 17 14 13 12
70 68 66 84 94 85 85 85 83 80 77 71 62 65 56 65 53 55 54 51 50 50 46 44 42 31 35 30 30 20 27 35 31 29 30 35 34 33 32 28 22 19 18 16 14
81 65 67 68 80 91 83 83 85 81 75 68 73 77 62 53 70 66 58 52 50 52 50 45 42 39 34 36 36 29 25 25 30 32 31 33 36 36 31 28 25 21 19 17 16
100 62 66 66 73 90 87 82 82 83 82 77 71 81 61 60 52 62 59 56 50 50 50 50 44 45 41 40 37 37 26 15 19 30 36 35 38 32 32 31 28 24 21 19 17
96 68 61 71 73 77 85 86 82 81 86 90 82 84 82 53 50 67 61 57 53 51 48 48 45 46 45 44 42 39 36 27 31 25 36 38 32 34 33 32 29 27 23 20 19
76 65 72 69 63 68 71 89 85 80 81 86 84 84 83 74 58 55 55 57 49 48 49 46 45 45 45 45 43 42 42 39 34 32 36 42 35 36 36 34 31 28 26 25 23
71 89 72 69 60 63 69 80 90 78 79 78 78 85 84 77 66 62 58 50 52 52 51 50 49 46 45 44 42 40 37 39 38 33 34 41 38 38 36 35 34 35 32 28 26
58 93 70 63 62 61 61 75 91 85 82 80 80 82 79 78 81 67 54 54 55 56 57 52 49 47 45 43 41 38 38 39 35 37 35 39 38 38 38 38 38 35 32 32 30
58 75 81 65 60 62 51 63 73 74 82 80 80 73 64 67 68 62 65 55 55 59 58 55 51 47 44 44 41 39 39 42 42 42 41 41 39 41 41 40 39 38 38 35 34
55 56 74 69 66 59 48 43 60 72 74 79 79 80 76 70 67 56 58 59 54 52 55 55 45 43 45 45 44 42 42 42 44 45 46 42 44 44 44 41 41 39 38 36 33
58 57 60 73 71 60 41 43 54 62 74 76 80 80 71 73 69 64 58 60 63 59 56 53 49 46 46 45 45 43 41 40 41 45 47 45 43 44 48 44 45 41 39 36 36
61 60 59 75 72 70 41 44 54 65 63 71 76 78 77 68 70 72 60 63 69 68 66 62 58 54 52 48 45 41 41 40 40 44 49 50 49 46 50 51 47 41 39 36 34
67 69 59 59 69 52 52 53 57 71 61 72 70 77 78 74 65 58 70 66 77 77 72 59 53 47 45 42 41 41 39 40 41 41 47 46 48 43 47 49 45 40 40 36 35
73 71 66 55 64 52 56 56 69 80 64 70 75 73 74 77 75 71 48 49 57 56 70 75 63 56 48 48 49 46 43 44 47 47 44 47 49 43 42 50 44 40 41 38 38
75 77 64 67 62 59 57 59 55 62 68 67 68 69 75 74 76 76 75 54 44 41 45 56 68 64 54 52 48 49 47 48 51 50 47 48 44 44 49 44 45 42 42 41 42
74 85 76 60 63 70 63 66 55 54 55 58 73 75 77 77 77 84 90 70 56 43 48 54 58 55 49 47 47 48 49 46 48 47 44 45 45 43 46 46 47 45 46 42 41
77 72 74 62 66 55 59 61 54 46 48 57 64 71 75 77 77 80 86 91 85 50 41 43 51 53 52 50 49 48 42 43 46 46 47 46 44 44 43 31 39 42 40 41 43
75 82 76 69 65 63 71 55 55 46 45 49 57 61 70 77 73 70 65 73 74 71 52 46 45 48 49 53 51 52 53 49 47 47 48 47 46 46 42 29 33 37 39 40 39
67 77 69 76 78 70 65 61 56 49 39 43 38 51 53 62 69 68 66 62 68 69 65 55 47 47 49 50 47 47 45 43 45 48 50 48 43 41 40 34 30 32 36 38 39
66 78 74 69 76 72 71 78 58 57 38 36 40 35 44 48 51 58 60 61 63 65 72 82 81 73 55 52 50 51 50 48 48 45 46 46 50 43 45 39 32 30 34 35 36
73 76 51 79 62 72 65 68 62 52 50 42 35 38 40 45 47 45 48 52 60 59 59 57 60 65 69 59 57 62 58 51 49 50 51 51 52 45 42 39 32 28 31 36 38
70 75 42 78 72 63 58 70 68 60 54 49 40 35 40 45 48 47 52 50 54 56 57 59 56 58 59 57 53 50 46 49 50 47 48 46 48 45 40 40 38 38 38 40 42
71 74 51 52 75 58 63 59 72 60 55 46 43 37 41 42 42 47 53 52 54 55 55 55 56 54 56 56 54 56 55 48 48 55 50 54 52 53 49 47 48 46 43 41 42
72 77 70 48 60 66 67 63 61 52 56 52 43 43 43 45 49 45 39 42 40 50 53 55 56 56 59 59 60 63 56 58 58 60 58 62 52 49 49 50 51 48 46 45 47
Wind_Direction
212 216 207 208 204 206 205 207 206 198 199 207 206 216 221 214 214 209 208 211 205 207 220 218 214 217 218 225 221 220 224 224 212 208 206 206 200 201 191 192 192 191 187 211 216
204 217 211 209 205 205 204 206 202 202 205 201 208 213 217 213 222 212 209 207 203 210 213 216 218 220 215 224 222 222 223 225 216 210 203 205 205 207 198 207 204 200 199 212 219
206 206 219 209 208 205 205 204 206 203 202 204 211 216 219 217 218 216 211 208 210 202 210 213 216 217 220 224 221 217 219 225 223 215 209 204 207 211 210 214 221 214 210 211 221
208 195 213 215 206 207 205 205 206 203 204 203 215 208 204 207 213 216 214 208 206 204 211 208 212 217 220 223 225 216 219 225 222 221 214 208 209 213 214 221 223 222 219 218 221
215 190 206 220 214 209 208 206 205 205 209 207 210 212 198 213 208 219 215 211 207 205 209 212 213 211 225 219 211 234 219 226 225 222 223 215 207 215 216 220 222 219 225 224 220
205 185 196 211 220 211 212 208 206 204 204 194 209 218 215 209 217 220 220 214 212 212 213 219 221 212 223 223 221 221 198 211 231 224 225 221 215 217 220 221 224 222 227 227 229
216 202 197 203 212 219 209 212 209 205 201 197 207 210 208 210 204 216 214 216 217 218 217 221 221 214 218 222 224 218 214 230 226 231 220 225 220 217 221 222 224 227 228 229 228
218 192 184 190 206 216 220 211 211 210 205 207 208 204 206 213 200 209 214 216 218 218 218 219 219 219 217 219 221 226 231 237 228 227 220 224 218 220 226 226 225 228 230 232 232
218 194 192 179 193 211 220 217 212 213 212 213 214 215 216 217 213 211 214 215 221 223 222 224 223 223 223 222 222 223 227 229 233 229 221 221 219 219 221 227 230 232 231 234 235
216 212 187 181 187 198 219 217 216 216 214 218 216 216 213 215 212 212 216 221 223 225 224 224 224 222 226 226 227 227 225 226 229 230 227 219 222 228 224 226 230 232 232 233 232
208 212 197 173 180 189 204 215 213 214 217 216 213 213 216 219 220 222 218 227 231 226 225 226 227 225 228 228 229 230 227 223 232 234 231 230 224 231 229 227 229 233 234 233 232
203 216 216 174 182 191 207 214 221 226 219 218 216 216 220 223 223 225 226 224 231 229 226 226 226 228 229 230 226 229 229 225 226 233 234 234 232 230 231 230 230 229 232 234 235
197 202 216 201 193 184 201 210 216 214 220 224 220 217 217 220 219 219 220 218 221 223 227 228 227 230 229 230 230 230 230 230 229 233 234 237 235 235 235 234 234 232 235 237 241
191 190 202 216 207 195 200 198 205 198 216 219 222 220 219 220 218 219 217 216 215 221 223 229 233 231 232 232 230 230 234 233 229 231 236 241 243 239 239 233 235 235 235 237 240
188 181 194 218 206 202 200 196 199 197 212 214 213 217 219 219 222 215 220 221 222 225 229 230 234 234 232 230 231 231 230 231 232 234 236 242 244 240 239 239 235 236 239 238 242
183 177 187 204 214 198 198 202 204 193 206 204 207 211 214 216 217 217 225 227 227 229 230 232 233 234 236 238 236 233 233 235 234 235 238 242 247 249 236 240 234 235 240 241 243
183 176 183 195 205 199 198 205 208 204 197 209 209 213 217 221 217 212 208 215 221 221 224 227 227 227 228 233 232 230 231 232 234 236 237 240 245 252 242 241 238 234 235 241 244
185 181 188 193 202 209 197 200 210 213 211 209 208 212 210 213 215 216 213 207 205 217 223 227 221 225 224 230 235 233 229 235 237 237 239 242 249 256 256 243 239 238 240 240 244
189 173 179 176 181 197 207 209 212 211 212 211 211 208 209 210 214 214 223 210 215 213 217 221 223 226 229 229 231 229 229 231 235 236 237 241 247 254 257 242 236 238 240 243 246
192 175 178 186 187 207 214 213 213 208 210 210 211 213 216 216 217 218 222 227 227 219 220 225 227 227 225 225 228 235 232 233 239 241 242 242 249 251 254 244 238 239 244 245 244
195 177 179 184 192 207 203 212 208 203 209 213 212 212 215 216 219 221 228 229 234 230 220 225 221 222 226 229 231 233 234 233 233 238 241 241 243 249 256 254 242 238 240 244 244
196 184 173 187 196 201 215 200 196 200 206 205 204 209 211 218 222 223 223 223 225 228 219 223 227 234 232 235 232 232 234 239 243 247 248 250 249 254 258 255 250 244 242 244 246
198 180 179 190 200 197 201 205 206 199 199 195 193 194 203 208 218 221 224 226 225 230 226 231 233 236 234 231 233 235 236 238 236 235 239 243 246 245 253 255 251 243 242 242 244
200 188 198 190 198 198 198 204 199 201 201 203 200 197 195 201 205 212 217 226 230 231 234 232 236 238 238 245 245 238 236 233 234 234 239 242 247 247 251 262 263 251 241 243 242
200 192 199 207 193 196 200 201 207 207 200 197 200 201 205 201 205 207 209 219 224 227 231 236 236 233 232 233 238 239 241 244 242 244 243 247 253 256 255 257 255 251 242 240 245
198 193 192 210 199 203 205 204 203 206 209 207 198 202 207 211 222 217 212 215 220 221 227 232 233 232 234 232 235 235 234 228 231 240 244 248 243 247 249 248 249 250 247 245 249
202 205 197 209 212 204 205 199 196 204 202 203 209 203 206 210 208 213 222 222 223 222 227 229 233 231 230 234 232 232 239 245 245 245 248 253 253 247 248 251 253 254 258 258 260
Height
5614 5628 5639 5654 5667 5680 5693 5706 5719 5735 5737 5748 5756 5763 5771 5777 5783 5788 5795 5804 5808 5813 5817 5821 5824 5828 5832 5836 5839 5840 5843 5848 5854 5857 5862 5865 5868 5872 5874 5875 5877 5878 5879 5881 5884
5605 5615 5627 5639 5654 5668 5682 5693 5710 5719 5725 5737 5749 5757 5764 5769 5776 5782 5790 5795 5801 5806 5812 5817 5821 5825 5828 5832 5835 5838 5841 5845 5851 5854 5859 5862 5866 5870 5873 5873 5876 5879 5880 5879 5882
5592 5603 5616 5626 5642 5657 5670 5683 5695 5710 5720 5730 5740 5748 5753 5761 5768 5778 5782 5788 5794 5800 5806 5810 5815 5819 5824 5827 5832 5836 5839 5840 5847 5851 5854 5859 5862 5867 5870 5874 5875 5878 5879 5880 5880
5576 5590 5604 5618 5630 5647 5660 5673 5685 5699 5711 5721 5731 5740 5740 5752 5760 5767 5773 5780 5787 5793 5800 5804 5811 5816 5820 5824 5829 5832 5834 5837 5842 5847 5851 5857 5858 5863 5868 5869 5874 5876 5878 5879 5880
5569 5578 5594 5609 5624 5635 5650 5662 5674 5689 5702 5712 5721 5726 5731 5743 5750 5757 5766 5772 5780 5787 5793 5799 5804 5810 5815 5820 5825 5827 5829 5834 5839 5843 5847 5851 5855 5858 5863 5866 5869 5874 5875 5877 5879
5561 5571 5587 5599 5611 5624 5640 5653 5665 5677 5687 5700 5709 5718 5728 5737 5741 5750 5760 5767 5774 5782 5788 5794 5799 5804 5810 5815 5819 5824 5824 5829 5834 5839 5842 5847 5852 5855 5860 5864 5866 5870 5872 5874 5877
5550 5566 5578 5593 5602 5613 5627 5643 5656 5666 5679 5687 5694 5706 5718 5726 5731 5741 5750 5760 5766 5774 5781 5787 5792 5798 5804 5808 5814 5820 5821 5825 5829 5832 5836 5841 5846 5852 5855 5859 5862 5866 5869 5871 5873
5536 5550 5569 5583 5593 5603 5620 5632 5645 5659 5669 5677 5684 5696 5707 5713 5721 5734 5742 5751 5758 5765 5773 5780 5785 5791 5797 5802 5808 5813 5818 5821 5824 5826 5830 5835 5843 5847 5851 5855 5859 5862 5866 5868 5870
5528 5541 5560 5569 5585 5596 5609 5625 5634 5649 5660 5667 5674 5683 5692 5701 5715 5729 5735 5746 5753 5759 5766 5773 5780 5786 5792 5797 5803 5807 5811 5815 5819 5822 5824 5828 5836 5840 5844 5849 5855 5859 5862 5864 5866
5519 5534 5551 5563 5580 5591 5598 5611 5622 5633 5642 5654 5662 5669 5684 5700 5710 5720 5729 5737 5748 5753 5759 5766 5774 5779 5786 5791 5797 5802 5805 5809 5813 5818 5822 5824 5831 5836 5841 5845 5848 5852 5856 5860 5863
5509 5524 5536 5551 5573 5586 5586 5592 5604 5616 5627 5641 5662 5676 5688 5694 5701 5711 5720 5730 5737 5745 5753 5761 5769 5776 5782 5786 5792 5798 5802 5806 5810 5814 5819 5822 5827 5830 5835 5838 5841 5847 5851 5854 5857
5502 5513 5528 5544 5567 5579 5579 5587 5602 5623 5632 5638 5653 5666 5677 5685 5696 5702 5710 5722 5729 5738 5746 5754 5764 5770 5774 5779 5784 5790 5795 5800 5803 5806 5812 5816 5822 5824 5827 5832 5837 5840 5843 5847 5851
5493 5507 5521 5537 5556 5561 5573 5585 5594 5612 5620 5635 5646 5654 5669 5679 5690 5699 5707 5717 5725 5730 5739 5747 5758 5762 5768 5774 5778 5782 5789 5794 5797 5801 5805 5809 5813 5817 5820 5826 5831 5834 5839 5841 5846
5487 5501 5516 5526 5537 5555 5565 5577 5591 5606 5609 5618 5632 5644 5658 5668 5677 5687 5697 5707 5714 5722 5730 5739 5747 5754 5762 5769 5773 5777 5782 5786 5790 5795 5799 5803 5806 5813 5813 5817 5822 5827 5832 5838 5840
5479 5495 5507 5516 5540 5550 5566 5575 5582 5594 5594 5604 5614 5629 5647 5656 5672 5680 5688 5697 5705 5715 5723 5735 5739 5747 5754 5761 5765 5771 5773 5778 5783 5788 5792 5795 5798 5804 5807 5808 5815 5822 5827 5833 5836
5472 5488 5498 5513 5529 5547 5561 5568 5572 5578 5575 5588 5602 5618 5633 5649 5662 5672 5681 5687 5694 5705 5713 5723 5732 5739 5750 5756 5761 5764 5769 5773 5777 5780 5784 5790 5792 5795 5801 5804 5811 5815 5821 5826 5829
5464 5477 5493 5507 5525 5536 5549 5551 5551 5555 5564 5579 5603 5617 5631 5641 5655 5663 5670 5678 5690 5698 5705 5714 5722 5731 5739 5745 5751 5755 5759 5763 5768 5771 5778 5780 5782 5789 5795 5796 5803 5808 5812 5817 5821
5453 5469 5484 5505 5518 5530 5534 5537 5544 5556 5572 5587 5599 5610 5616 5631 5645 5658 5663 5672 5681 5693 5702 5708 5715 5723 5730 5737 5745 5748 5750 5755 5759 5763 5768 5772 5778 5783 5785 5795 5798 5802 5805 5810 5813
5445 5460 5475 5491 5511 5517 5523 5528 5544 5556 5571 5581 5589 5594 5604 5618 5634 5641 5651 5669 5677 5688 5694 5699 5708 5717 5724 5730 5737 5741 5742 5749 5753 5757 5762 5768 5775 5778 5777 5788 5791 5794 5798 5802 5804
5440 5451 5474 5489 5499 5507 5513 5531 5544 5552 5563 5570 5579 5592 5603 5612 5621 5634 5646 5659 5670 5683 5692 5696 5702 5709 5713 5719 5726 5734 5740 5744 5748 5752 5757 5762 5767 5771 5772 5782 5785 5788 5792 5793 5796
5433 5448 5469 5483 5493 5495 5503 5520 5537 5548 5556 5565 5575 5586 5598 5603 5620 5630 5648 5659 5664 5677 5682 5685 5693 5700 5706 5712 5719 5724 5728 5733 5740 5744 5748 5753 5759 5763 5769 5776 5779 5781 5782 5786 5787
5428 5439 5456 5471 5475 5484 5498 5513 5527 5540 5552 5563 5571 5581 5591 5604 5611 5620 5633 5651 5656 5662 5671 5677 5684 5689 5701 5705 5713 5718 5724 5731 5735 5740 5742 5748 5757 5758 5763 5768 5771 5774 5776 5778 5779
5420 5436 5447 5457 5462 5477 5500 5509 5519 5534 5549 5556 5566 5574 5584 5593 5603 5616 5628 5639 5643 5650 5658 5668 5671 5679 5686 5695 5706 5710 5716 5720 5725 5729 5735 5740 5747 5748 5750 5756 5763 5766 5768 5770 5772
5415 5424 5442 5445 5461 5477 5489 5502 5516 5529 5541 5552 5562 5568 5575 5584 5596 5607 5617 5627 5636 5643 5650 5656 5658 5666 5677 5696 5700 5700 5705 5709 5714 5718 5726 5733 5737 5742 5745 5749 5755 5758 5761 5764 5764
5406 5414 5429 5433 5448 5469 5483 5499 5507 5519 5534 5545 5553 5564 5573 5579 5589 5598 5608 5617 5624 5632 5637 5645 5651 5659 5670 5679 5685 5692 5699 5703 5706 5718 5717 5735 5731 5738 5742 5741 5742 5745 5750 5752 5754
5401 5411 5424 5437 5453 5464 5475 5485 5502 5515 5530 5542 5550 5558 5565 5576 5589 5591 5597 5605 5611 5617 5626 5635 5641 5650 5659 5666 5672 5677 5683 5689 5697 5705 5709 5714 5721 5725 5726 5728 5729 5732 5736 5740 5743
5394 5406 5418 5430 5442 5453 5466 5485 5502 5513 5525 5538 5547 5552 5560 5571 5578 5587 5596 5604 5610 5613 5620 5626 5633 5640 5646 5652 5656 5658 5675 5680 5688 5694 5703 5702 5716 5713 5717 5718 5719 5722 5725 5727 5729